Location: Makakahi
(40.6833°S, 175.6000°E)
Time: 23:36:26
(UTC+00:00)

FENGYUN 1C DEB - Pass Details

Date: 07 December 2024
Orbit: 841 x 907 km, 98.9° (Epoch: 11 January)

Event Time Altitude Azimuth Distance (km) Brightness Sun altitude
Rises 08:09:10 0° 153° (SSE) 3,502 ? -5.7°
Reaches altitude 10° 08:12:09 10° 138° (SE) 2,543 ? -6.1°
Maximum altitude 08:16:30 23° 87° (E) 1,786 ? -6.8°
Drops below altitude 10° 08:20:45 10° 36° (NE) 2,487 ? -7.4°
Enters shadow 08:21:36 - 31° (NNE) 2,739 ? -7.5°
